Hourly Weather Hotetovo

Today, 22 April, Thursday

Time Temperature Precipitation Wind Pressure Humidity
00:00 +4°C° 0 mm 3 mps 742 mmHg 91%
01:00 +4°C° 0 mm 3 mps 742 mmHg 92%
02:00 +4°C° 0 mm 3 mps 743 mmHg 93%
03:00 +4°C° 0 mm 3 mps 743 mmHg 92%
04:00 +3°C° 0 mm 3 mps 743 mmHg 92%
05:00 +3°C° 0 mm 3 mps 743 mmHg 91%
06:00 +5°C° 0 mm 3 mps 743 mmHg 86%
07:00 +8°C° 0 mm 3 mps 743 mmHg 81%
08:00 +8°C° 0 mm 4 mps 744 mmHg 75%
09:00 +11°C° 0.2 mm 4 mps 744 mmHg 69%
10:00 +12°C° 0.2 mm 5 mps 744 mmHg 63%
11:00 +14°C° 0.2 mm 6 mps 743 mmHg 57%
12:00 +14°C° 0.2 mm 6 mps 743 mmHg 53%
13:00 +15°C° 0.2 mm 6 mps 743 mmHg 49%
14:00 +15°C° 0.2 mm 6 mps 743 mmHg 45%
15:00 +15°C° 0 mm 6 mps 743 mmHg 50%
16:00 +14°C° 0 mm 6 mps 743 mmHg 55%
17:00 +13°C° 0 mm 6 mps 743 mmHg 60%
18:00 +12°C° 0.3 mm 5 mps 743 mmHg 69%
19:00 +10°C° 0.3 mm 4 mps 743 mmHg 77%
20:00 +9°C° 0.3 mm 3 mps 743 mmHg 86%
21:00 +9°C° 1 mm 3 mps 743 mmHg 88%
22:00 +7°C° 1 mm 4 mps 743 mmHg 90%
23:00 +7°C° 1 mm 4 mps 743 mmHg 91%

Tomorrow, 23 April, Friday

Time Temperature Precipitation Wind Pressure Humidity
00:00 +6°C° 0.3 mm 4 mps 743 mmHg 88%
01:00 +6°C° 0.3 mm 4 mps 743 mmHg 84%
02:00 +5°C° 0.3 mm 4 mps 743 mmHg 81%
03:00 +5°C° 0.2 mm 4 mps 743 mmHg 82%
04:00 +4°C° 0.2 mm 3 mps 744 mmHg 83%
05:00 +4°C° 0.2 mm 3 mps 744 mmHg 84%
06:00 +4°C° 0 mm 4 mps 744 mmHg 79%
07:00 +5°C° 0 mm 4 mps 744 mmHg 74%
08:00 +5°C° 0 mm 5 mps 744 mmHg 69%
09:00 +6°C° 0 mm 5 mps 745 mmHg 63%
10:00 +5°C° 0 mm 6 mps 745 mmHg 57%
11:00 +7°C° 0 mm 6 mps 745 mmHg 51%
12:00 +7°C° 0 mm 6 mps 745 mmHg 51%
13:00 +7°C° 0 mm 6 mps 745 mmHg 50%
14:00 +7°C° 0 mm 6 mps 745 mmHg 50%
15:00 +7°C° 0 mm 6 mps 745 mmHg 52%
16:00 +7°C° 0 mm 5 mps 745 mmHg 53%
17:00 +6°C° 0 mm 5 mps 745 mmHg 54%
18:00 +5°C° 0 mm 4 mps 745 mmHg 61%
19:00 +4°C° 0 mm 3 mps 745 mmHg 68%
20:00 +3°C° 0 mm 3 mps 745 mmHg 75%
21:00 +3°C° 0 mm 2 mps 745 mmHg 78%
22:00 +3°C° 0 mm 2 mps 744 mmHg 80%
23:00 +2°C° 0 mm 2 mps 744 mmHg 83%

Day after tomorrow, 24 April, Saturday

Time Temperature Precipitation Wind Pressure Humidity
00:00 +1°C° 0 mm 3 mps 744 mmHg 85%
01:00 +1°C° 0 mm 3 mps 744 mmHg 87%
02:00 +1°C° 0 mm 3 mps 744 mmHg 89%
03:00 0°C° 0.2 mm 3 mps 744 mmHg 90%
04:00 -1°C° 0.2 mm 4 mps 743 mmHg 92%
05:00 -1°C° 0.2 mm 4 mps 743 mmHg 93%
06:00 -1°C° 0.6 mm 5 mps 743 mmHg 93%
07:00 -1°C° 0.6 mm 5 mps 744 mmHg 94%
08:00 -2°C° 0.6 mm 6 mps 744 mmHg 95%
09:00 -1°C° 0.2 mm 6 mps 744 mmHg 87%
10:00 -1°C° 0.2 mm 7 mps 745 mmHg 80%
11:00 0°C° 0.2 mm 7 mps 745 mmHg 72%
12:00 +2°C° 0.1 mm 7 mps 745 mmHg 68%
13:00 +2°C° 0.1 mm 6 mps 745 mmHg 64%
14:00 +3°C° 0.1 mm 6 mps 745 mmHg 59%
15:00 +3°C° 0.2 mm 6 mps 745 mmHg 61%
16:00 +3°C° 0.2 mm 6 mps 745 mmHg 63%
17:00 +3°C° 0.2 mm 6 mps 745 mmHg 65%
18:00 +3°C° 0.1 mm 5 mps 745 mmHg 69%
19:00 +2°C° 0.1 mm 5 mps 745 mmHg 73%
20:00 +1°C° 0.1 mm 4 mps 745 mmHg 78%
21:00 0°C° 0 mm 4 mps 745 mmHg 79%
22:00 -1°C° 0 mm 5 mps 745 mmHg 81%
23:00 -1°C° 0 mm 5 mps 745 mmHg 83%

25 April, Sunday

Time Temperature Precipitation Wind Pressure Humidity
00:00 -2°C° 0 mm 5 mps 745 mmHg 83%
01:00 -2°C° 0 mm 5 mps 745 mmHg 84%
02:00 -4°C° 0 mm 5 mps 745 mmHg 85%
03:00 -3°C° 0 mm 4 mps 745 mmHg 86%
04:00 -3°C° 0 mm 4 mps 745 mmHg 86%
05:00 -4°C° 0 mm 4 mps 745 mmHg 87%
06:00 -4°C° 0 mm 5 mps 745 mmHg 82%
07:00 -2°C° 0 mm 5 mps 745 mmHg 77%
08:00 -1°C° 0 mm 6 mps 745 mmHg 72%
09:00 -1°C° 0 mm 6 mps 745 mmHg 70%
10:00 -1°C° 0 mm 6 mps 745 mmHg 67%
11:00 -1°C° 0 mm 6 mps 746 mmHg 65%
12:00 +1°C° 0 mm 6 mps 745 mmHg 60%
13:00 +2°C° 0 mm 6 mps 745 mmHg 55%
14:00 +3°C° 0 mm 6 mps 745 mmHg 51%
15:00 +3°C° 0.1 mm 5 mps 745 mmHg 53%
16:00 +3°C° 0.1 mm 5 mps 745 mmHg 55%
17:00 +3°C° 0.1 mm 5 mps 745 mmHg 58%
18:00 +3°C° 0 mm 4 mps 745 mmHg 65%
19:00 +1°C° 0 mm 4 mps 745 mmHg 72%
20:00 0°C° 0 mm 3 mps 745 mmHg 79%
21:00 0°C° 0 mm 3 mps 745 mmHg 81%
22:00 0°C° 0 mm 3 mps 745 mmHg 84%
23:00 -1°C° 0 mm 3 mps 745 mmHg 87%

26 April, Monday

Time Temperature Precipitation Wind Pressure Humidity
00:00 -1°C° 0 mm 3 mps 745 mmHg 88%
01:00 -1°C° 0 mm 3 mps 745 mmHg 88%
02:00 -1°C° 0 mm 3 mps 745 mmHg 89%
03:00 -1°C° 0 mm 3 mps 745 mmHg 90%
04:00 -1°C° 0 mm 3 mps 745 mmHg 90%
05:00 -1°C° 0 mm 2 mps 744 mmHg 91%
06:00 0°C° 0 mm 3 mps 744 mmHg 85%
07:00 +1°C° 0 mm 3 mps 744 mmHg 78%
08:00 +1°C° 0 mm 4 mps 744 mmHg 72%
09:00 +3°C° 0.2 mm 4 mps 744 mmHg 66%
10:00 +4°C° 0.2 mm 4 mps 744 mmHg 60%
11:00 +4°C° 0.2 mm 4 mps 744 mmHg 54%
12:00 +5°C° 0.3 mm 5 mps 744 mmHg 53%
13:00 +5°C° 0.3 mm 5 mps 744 mmHg 52%
14:00 +5°C° 0.3 mm 5 mps 744 mmHg 52%
15:00 +5°C° 0.2 mm 5 mps 743 mmHg 53%
16:00 +5°C° 0.2 mm 5 mps 743 mmHg 54%
17:00 +5°C° 0.2 mm 5 mps 743 mmHg 55%
18:00 +4°C° 0 mm 4 mps 743 mmHg 62%
19:00 +2°C° 0 mm 3 mps 743 mmHg 68%
20:00 +1°C° 0 mm 3 mps 743 mmHg 75%
21:00 +1°C° 0 mm 3 mps 743 mmHg 78%
22:00 0°C° 0 mm 3 mps 743 mmHg 80%
23:00 -1°C° 0 mm 3 mps 743 mmHg 83%

27 April, Tuesday

Time Temperature Precipitation Wind Pressure Humidity
00:00 -1°C° 0 mm 3 mps 743 mmHg 85%
01:00 -1°C° 0 mm 3 mps 743 mmHg 88%
02:00 -1°C° 0 mm 3 mps 743 mmHg 90%
03:00 -2°C° 0 mm 4 mps 743 mmHg 92%
04:00 -1°C° 0 mm 4 mps 743 mmHg 93%
05:00 -1°C° 0 mm 4 mps 743 mmHg 94%
06:00 0°C° 0 mm 4 mps 743 mmHg 91%
07:00 0°C° 0 mm 4 mps 743 mmHg 88%
08:00 +1°C° 0 mm 4 mps 743 mmHg 85%
09:00 +2°C° 0.1 mm 5 mps 743 mmHg 80%
10:00 +2°C° 0.1 mm 5 mps 744 mmHg 75%
11:00 +3°C° 0.1 mm 5 mps 744 mmHg 69%
12:00 +3°C° 0 mm 5 mps 744 mmHg 67%
13:00 +5°C° 0 mm 5 mps 744 mmHg 65%
14:00 +5°C° 0 mm 5 mps 744 mmHg 63%
15:00 +5°C° 0 mm 5 mps 744 mmHg 70%
16:00 +5°C° 0 mm 5 mps 744 mmHg 77%
17:00 +3°C° 0 mm 5 mps 744 mmHg 84%
18:00 +3°C° 0 mm 4 mps 744 mmHg 86%
19:00 +3°C° 0 mm 3 mps 744 mmHg 87%
20:00 +3°C° 0 mm 2 mps 744 mmHg 89%
21:00 +3°C° 0 mm 2 mps 744 mmHg 90%
22:00 +2°C° 0 mm 2 mps 744 mmHg 91%
23:00 +2°C° 0 mm 2 mps 745 mmHg 92%
Show more

We Need Your Consent

Meteoprog and our Service Providers may store and access personal data such as cookies, device identifiers or other similar technologies on your device and process such data to personalise content and ads, as well as provide social media features and to analyse the traffic.

  • Store and/or access information on your device

    Cookies, device identifiers or other information can be stored or accessed on your device for the purposes indicated above.

  • Personalised ads and content, ad and content measurement, audience insights, and products development

    Ads and content can be personalised based on a profile. More data can be added to better personalise ads and content. Ad and content performance can be measured. Insights about the audience who saw the ads and content can be derived. Such data can be used to develop or improve user’s experience, systems and software.

By clicking ‘I Agree’ you will allow the use of indicated cookies, device identifiers, web beacons or other similar technologies. Your settings can be changed in the browser on your device.

For certain purposes, legitimate interests may be relied on, rather than consent. You can read more about this in our Privacy and Cookie Policy.